This is the latest recevied weather packets stored in our database for station/object KB1RMA-4. If no packets are shown the sender has not sent any weather packets the latest 10 day(s).
| Time | Temp. | Humidity | Pressure | Rain* | Wind** | Luminosity | Snow |
|---|---|---|---|---|---|---|---|
| 1787596205 | 30° C | 35% | 1012.5 hPa | 0 mm | - | 620 W/m² | - |
| 1787595901 | 30° C | 35% | 1012.4 hPa | 0 mm | - | 649 W/m² | - |
| 1787595596 | 30° C | 36% | 1012.5 hPa | 0 mm | - | 700 W/m² | - |
| 1787595292 | 29.44° C | 38% | 1012.7 hPa | 0 mm | - | 672 W/m² | - |
| 1787594992 | 30° C | 34% | 1012.6 hPa | 0 mm | - | 176 W/m² | - |
| 1787594687 | 30° C | 35% | 1012.5 hPa | 0 mm | - | 652 W/m² | - |
| 1787594385 | 29.44° C | 37% | 1012.7 hPa | 0 mm | - | 647 W/m² | - |
| 1787594080 | 30° C | 38% | 1012.5 hPa | 0 mm | - | 644 W/m² | - |
| 1787593775 | 29.44° C | 35% | 1012.6 hPa | 0 mm | - | 663 W/m² | - |
| 1787593470 | 29.44° C | 36% | 1012.9 hPa | 0 mm | - | 667 W/m² | - |
| 1787593165 | 29.44° C | 37% | 1012.8 hPa | 0 mm | - | 652 W/m² | - |
| 1787592865 | 29.44° C | 33% | 1012.8 hPa | 0 mm | - | 630 W/m² | - |
| 1787592560 | 29.44° C | 33% | 1012.9 hPa | 0 mm | - | 627 W/m² | - |
| 1787592260 | 29.44° C | 35% | 1013 hPa | 0 mm | - | 658 W/m² | - |
| 1787591956 | 28.89° C | 37% | 1013 hPa | 0 mm | - | 669 W/m² | - |
| 1787591651 | 28.89° C | 34% | 1013.1 hPa | 0 mm | - | 671 W/m² | - |
| 1787591342 | 29.44° C | 34% | 1013.3 hPa | 0 mm | - | 682 W/m² | - |
| 1787591041 | 28.89° C | 34% | 1013.4 hPa | 0 mm | - | 685 W/m² | - |
| 1787590737 | 28.89° C | 36% | 1013.3 hPa | 0 mm | - | 689 W/m² | - |
| 1787590432 | 28.89° C | 34% | 1013.4 hPa | 0 mm | - | 683 W/m² | - |
| 1787590127 | 28.89° C | 35% | 1013.3 hPa | 0 mm | - | 681 W/m² | - |
| 1787589823 | 28.89° C | 35% | 1013.3 hPa | 0 mm | - | 676 W/m² | - |
| 1787589519 | 28.89° C | 40% | 1013.2 hPa | 0 mm | - | 670 W/m² | - |
| 1787589213 | 28.33° C | 37% | 1013 hPa | 0 mm | - | 676 W/m² | - |
| 1787588909 | 28.89° C | 36% | 1013.3 hPa | 0 mm | - | 667 W/m² | - |
* Rain latest hour (hover to see other rain measurements)
** Current wind speed in m/s (hover to see current wind gust speed)